sat.trackr.live / text

‹ back to catalog

STARLINK-35636

NORAD 66160 · 2025-240Q

PAYLOAD ACTIVE UNKNOWN

§ Identity

Operator
Country
US
Launch date
2025-10-25
Launch site
AFWTR
Launch vehicle
Mass (kg)
RCS (m²)

Purposes: comms

External: N2YO · Heavens-Above · Gunter

§ Orbital elements

Epoch: 2026-05-25T03:58:07.916160Z

Period
94.10 min
Inclination
53.1596°
Eccentricity
0.0000859
Mean motion
15.30212946 rev/d
Perigee alt
474.6 km
Apogee alt
475.8 km
Semi-major
6,853.3 km
B*
6.4181e-4
RAAN
67.8463°
Arg perigee
109.2970°
Mean anomaly
250.8124°
Rev number
3,369

§ Raw data

STARLINK-356361 66160U 25240Q   26145.16536940  .00018705  00000+0  64181-3 0  99972 66160  53.1596  67.8463 0000859 109.2970 250.8124 15.30212946 33690

JSON: /api/v1/satellites/66160 · /tle

For live sub-satellite position, see the globe view (requires WebGL).

§ Visibility from observer

Set your observer location to see the next 7 days of passes ≥ 10°. The values pass through the URL so the page stays shareable.

No JS? Fill the form by hand. The geolocation button needs JavaScript.